Weather in Varnek

Russia / Nenets Autonomous Okrug     69°42′47″N   60°03′15″E
temp.,
°C
wind,
m/s
gust,
m/s
humid.,
%
clouds,
%
prec.,
mm/h
press.,
hPa
HPBL,
m
19 september, sun
sun1900:00+3nne121676100 0.1 10201269
03:00+3nne121676100 0.2 10201259
06:00+3nne111576100 0.1 10211235
09:00+4nne111574100 0.2 10221172
12:00+4nne111474100 0.0 10231133
15:00+4nne91275100 0.1 10241095
18:00+4nne81177100 0.0 1025960
21:00+4nne6977100 0.1 1026782
20 september, mon
mon2000:00+4n5779100 0.0 1026426
03:00+3nnw4679100 0.1 1027266
06:00+3nw4579100 0.0 1026287
09:00+5wnw6877100 0.0 1026597
12:00+6wnw81080100 0.0 1024707
15:00+6wnw71188100 0.1 1023599
18:00+6nw8139299 0.1 1022471
21:00+6nw61295100 0.1 1021434
21 september, tue
tue2100:00+6nw71190100 0.0 1020505
03:00+6nnw5994100 0.0 1021296
06:00+5nnw479377 0.0 1022220
09:00+7nnw34755 0.0 1023307
12:00+8w3371100 0.0 1023405
15:00+7w5686100 0.0 1023295
18:00+7w469599 0.0 1022164
21:00+7wnw4693100 0.0 1022155
22 september, wed
wed2200:00+7wnw4791100 0.0 1022157
03:00+4nw598958 0.0 1022212
06:00+4wnw61091100 0.0 1022315
09:00+6wnw71179100 0.0 1022495
12:00+7wnw912706 0.0 1023552
15:00+6wnw813795 0.0 1023463
18:00+5wnw712905 0.0 1023383
21:00+5wnw71191100 0.0 1023382
23 september, thu
thu2300:00+6w71190100 0.0 1023399
03:00+6wsw81290100 0.0 1022392
06:00+6wsw71188100 0.0 1022404
09:00+6wsw81285100 0.0 1021469
12:00+6wsw81285100 0.0 1021423
15:00+6wsw81186100 0.0 1021395
18:00+6wsw71186100 0.0 1021358
21:00+6wsw71186100 0.0 1022330